Rotterdam, Netherlands

4:47 AM CEST on April 23, 2018 (GMT +0200)
Rotterdam

Weather History for EHRD - September, 2014

Change the Weather History Date:

Thursday, September 11, 2014

  Actual Average Record
Temperature  
Mean Temperature 58 °F -  
Max Temperature 69 °F 61 °F 84 °F (1999)
Min Temperature 46 °F 49 °F 46 °F (2014)
Degree Days  
Heating Degree Days 8    
Growing Degree Days 8 (Base 50)    
Moisture  
Dew Point 53 °F    
Average Humidity 81    
Maximum Humidity 100    
Minimum Humidity 52    
Precipitation  
Precipitation 0.00 in - - ()
Sea Level Pressure  
Sea Level Pressure 30.12 in    
Wind  
Wind Speed 5 mph ()    
Max Wind Speed 13 mph    
Max Gust Speed -    
Visibility 5.0 miles    
Events Fog    
Averages and records for this station are not official NWS values.
T = Trace of Precipitation, MM = Missing Value Source: Averaged Metar Reports

Daily Weather History Graph

Daily Weather History Graph

Search for Another Location

Airport or City:

Astronomy

Sep. 11, 2014 Rise Set
Actual Time 7:09 AM CEST 8:06 PM CEST
Civil Twilight 6:35 AM CEST 8:40 PM CEST
Nautical Twilight 5:54 AM CEST 9:22 PM CEST
Astronomical Twilight 5:09 AM CEST 10:06 PM CEST
Moon 9:08 PM CEST (9/11) 10:12 AM CEST (9/11)
Length of Visible Light 14h 05m
Length of Day
12h 56m
Waning Gibbous, 92% of the Moon is Illuminated
Sep 11
Waning Gibbous
Sep 16
Last Quarter
Sep 24
New
Oct 1
First Quarter
Oct 8
Full

Hourly Weather History & Observations

Time (CEST) Temp. Windchill Dew Point Humidity Pressure Visibility Wind Dir Wind Speed Gust Speed Precip Events Conditions
12:00 AM 52 °F - 51 °F 95% 30.15 in 2 mi NNW 4.5 mph - -   Mist
12:25 AM 51.8 °F - 50.0 °F 94% 30.12 in 1.8 mi NNW 3.5 mph - N/A   Mist
12:55 AM 50.0 °F - 50.0 °F 100% 30.12 in - NNW 2.3 mph - N/A   Mist
1:00 AM 51 °F - 51 °F 99% 30.14 in 2 mi North 2.2 mph - -   Mist
1:25 AM 50.0 °F - 50.0 °F 100% 30.12 in 1.3 mi North 1.2 mph - N/A   Mist
1:55 AM 50.0 °F - 50.0 °F 100% 30.12 in 1.4 mi North 1.2 mph - N/A   Mist
2:00 AM 49 °F - 49 °F 100% 30.14 in 1 mi North 2.2 mph - -   Mist
2:25 AM 50.0 °F - 50.0 °F 100% 30.12 in 0.2 mi North 1.2 mph - N/A Fog Fog
2:55 AM 48.2 °F - 48.2 °F 100% 30.12 in 0.3 mi North 2.3 mph - N/A Fog Fog
3:00 AM 47 °F - 47 °F 100% 30.14 in 0 mi North 2.2 mph - - Fog Fog
3:25 AM 46.4 °F 45.2 °F 46.4 °F 100% 30.12 in 0.2 mi WNW 3.5 mph - N/A Fog Fog
3:55 AM 48.2 °F - 48.2 °F 100% 30.12 in 0.3 mi West 2.3 mph - N/A Fog Fog
4:00 AM 48 °F - 48 °F 100% 30.13 in 0 mi West 2.2 mph - - Fog Fog
4:25 AM 46.4 °F 44.3 °F 46.4 °F 100% 30.12 in 0.3 mi WNW 4.6 mph - N/A Fog Fog
4:55 AM 48.2 °F - 48.2 °F 100% 30.12 in - Variable 2.3 mph - N/A   Mist
5:00 AM 48 °F - 47 °F 97% 30.12 in 1 mi Calm Calm - - Fog Fog
5:25 AM 50.0 °F - 48.2 °F 94% 30.09 in 0.6 mi Variable 2.3 mph - N/A Fog Fog
5:55 AM 48.2 °F - 46.4 °F 93% 30.09 in 0.4 mi NNW 1.2 mph - N/A Fog Fog
6:00 AM 48 °F - 48 °F 98% 30.11 in 0 mi Calm Calm - - Fog Fog
6:25 AM 50.0 °F - 50.0 °F 100% 30.09 in - WNW 2.3 mph - N/A Fog Fog
6:55 AM 46.4 °F 45.2 °F 46.4 °F 100% 30.09 in 1.4 mi NNW 3.5 mph - N/A   Partly Cloudy
7:00 AM 47 °F - 47 °F 100% 30.11 in 1 mi NW 2.2 mph - - Fog Fog
7:25 AM 48.2 °F - 48.2 °F 100% 30.09 in 1.5 mi Variable 2.3 mph - N/A   Mist
7:55 AM 53.6 °F - 51.8 °F 94% 30.09 in 2.2 mi Variable 2.3 mph - N/A   Mist
8:00 AM 54 °F - 53 °F 97% 30.12 in 2 mi North 2.2 mph - - Fog Fog
8:25 AM 55.4 °F - 55.4 °F 100% 30.09 in 3.1 mi NNW 3.5 mph - N/A   Mist
8:55 AM 60.8 °F - 57.2 °F 88% 30.09 in 3.7 mi NNW 3.5 mph - N/A   Unknown
9:00 AM 61 °F - 57 °F 83% 30.12 in 4 mi North 4.5 mph - -   Mist
9:25 AM 60.8 °F - 57.2 °F 88% 30.09 in 5.6 mi North 6.9 mph - N/A   Scattered Clouds
9:55 AM 60.8 °F - 57.2 °F 88% 30.12 in 5.0 mi NNE 6.9 mph - N/A   Unknown
10:00 AM 63 °F - 58 °F 78% 30.13 in 6 mi NNE 8.9 mph - -   Mist
10:25 AM 62.6 °F - 57.2 °F 82% 30.12 in 6.2 mi NNE 9.2 mph - N/A   Scattered Clouds
10:55 AM 64.4 °F - 57.2 °F 77% 30.12 in 6.2 mi NNE 10.4 mph - N/A   Scattered Clouds
11:00 AM 64 °F - 56 °F 68% 30.13 in 7 mi NNE 8.9 mph - -   Partly Cloudy
11:25 AM 64.4 °F - 57.2 °F 77% 30.12 in 6.2 mi North 8.1 mph - N/A   Partly Cloudy
11:55 AM 66.2 °F - 57.2 °F 73% 30.12 in 6.2 mi NE 10.4 mph - N/A   Scattered Clouds
12:00 PM 65 °F - 56 °F 65% 30.13 in 7 mi NNE 11.2 mph - -   Scattered Clouds
12:25 PM 66.2 °F - 57.2 °F 73% 30.12 in 6.2 mi NE 11.5 mph - N/A   Scattered Clouds
12:55 PM 66.2 °F - 57.2 °F 73% 30.12 in 6.2 mi NNE 10.4 mph - N/A   Partly Cloudy
1:00 PM 66 °F - 57 °F 65% 30.13 in 10 mi NE 11.2 mph - -   Partly Cloudy
1:25 PM 66.2 °F - 55.4 °F 68% 30.12 in 6.2 mi NNE 9.2 mph - N/A   Partly Cloudy
1:55 PM 68.0 °F - 55.4 °F 64% 30.12 in 6.2 mi NE 10.4 mph - N/A   Partly Cloudy
2:00 PM 68 °F - 55 °F 53% 30.13 in 16 mi NE 11.2 mph - -   Partly Cloudy
2:25 PM 68.0 °F - 53.6 °F 60% 30.09 in 6.2 mi North 11.5 mph - N/A   Partly Cloudy
2:55 PM 68.0 °F - 55.4 °F 64% 30.09 in 6.2 mi NE 9.2 mph - N/A   Scattered Clouds
3:00 PM 67 °F - 54 °F 54% 30.13 in 17 mi North 11.2 mph - -   Overcast
3:25 PM 66.2 °F - 55.4 °F 68% 30.12 in 6.2 mi NNE 10.4 mph - N/A   Scattered Clouds
3:55 PM 66.2 °F - 55.4 °F 68% 30.12 in 6.2 mi NNE 10.4 mph - N/A   Mostly Cloudy
4:00 PM 67 °F - 56 °F 58% 30.12 in 14 mi NNE 11.2 mph - -   Scattered Clouds
4:25 PM 68.0 °F - 53.6 °F 60% 30.09 in 6.2 mi North 12.7 mph - N/A   Scattered Clouds
4:55 PM 66.2 °F - 55.4 °F 68% 30.09 in 6.2 mi NNE 11.5 mph - N/A   Scattered Clouds
5:00 PM 68 °F - 54 °F 52% 30.12 in 15 mi NNE 8.9 mph - -   Mostly Cloudy
5:25 PM 66.2 °F - 53.6 °F 64% 30.09 in 6.2 mi NNE 11.5 mph - N/A   Unknown
5:55 PM 68.0 °F - 55.4 °F 64% 30.09 in 6.2 mi NE 6.9 mph - N/A   Mostly Cloudy
6:00 PM 66 °F - 54 °F 55% 30.12 in 22 mi NE 13.4 mph - -   Partly Cloudy
6:25 PM 64.4 °F - 53.6 °F 68% 30.09 in 6.2 mi NE 12.7 mph - N/A   Mostly Cloudy
6:55 PM 64.4 °F - 51.8 °F 64% 30.12 in 6.2 mi NE 9.2 mph - N/A   Unknown
7:00 PM 64 °F - 53 °F 58% 30.13 in 25 mi NE 11.2 mph - -  
7:25 PM 64.4 °F - 51.8 °F 64% 30.12 in 6.2 mi NE 9.2 mph - N/A   Unknown
7:55 PM 62.6 °F - 51.8 °F 68% 30.12 in 6.2 mi NE 8.1 mph - N/A   Unknown
8:00 PM 62 °F - 52 °F 60% 30.14 in 28 mi NE 6.7 mph - -   Partly Cloudy
8:25 PM 60.8 °F - 51.8 °F 72% 30.12 in 6.2 mi NNE 5.8 mph - N/A   Unknown
8:55 PM 59.0 °F - 51.8 °F 77% 30.15 in 6.2 mi North 4.6 mph - N/A   Unknown
9:00 PM 59 °F - 52 °F 69% 30.17 in 25 mi North 4.5 mph - -  
9:25 PM 59.0 °F - 51.8 °F 77% 30.15 in 6.2 mi North 4.6 mph - N/A   Unknown
9:55 PM 59.0 °F - 53.6 °F 82% 30.15 in 6.2 mi NNE 3.5 mph - N/A   Unknown
10:00 PM 59 °F - 53 °F 76% 30.18 in 22 mi NNE 4.5 mph - -   Scattered Clouds
10:25 PM 59.0 °F - 53.6 °F 82% 30.15 in 6.2 mi NE 6.9 mph - N/A   Unknown
10:55 PM 59.0 °F - 53.6 °F 82% 30.18 in 6.2 mi NE 6.9 mph - N/A   Unknown
11:00 PM 58 °F - 54 °F 84% 30.19 in 14 mi NE 6.7 mph - -  
11:25 PM 59.0 °F - 55.4 °F 88% 30.18 in 6.2 mi NE 6.9 mph - N/A   Unknown
11:55 PM 57.2 °F - 55.4 °F 94% 30.18 in 6.2 mi NE 6.9 mph - N/A   Unknown